www.pogodaiklimat.ru

Погода и климат >> Архив погоды >> Египет >> Эль-Тор


ПОГОДА в Эль-Торе

  • Прогноз погоды в Эль-Торе
  • Монитор погоды в Эль-Торе

АРХИВ ПОГОДЫ в Эль-Торе

Время (UTC), дата Ветер
(напр.,м/с)
 
Видим.   Явления Облачность Т
(С)
Тd
(С)
f
(%)
Тe
(С)
Тes
(С)
Комфортность P
(гПа)
Po
(гПа)
Тmin
(С)
Tmax
(С)
R
(мм)
R24
(мм)
S
(см)
00 12.07 СЗ 4 10 км ясно +25.4 +19.6 70 +31 +31 очень
душно
1004.0 1002.4
03 12.07 штиль 0 10 км ясно +25.4 +19.6 70 +31 +31 очень
душно
1005.4 1003.8
06 12.07 СЗ 5 10 км ясно +29.0 +23.2 71 +39 +44 очень
душно
1007.4 1005.8 +24.0
09 12.07 З 5 10 км ясно +30.8 +23.5 65 +42 +52 опасность
перегрева
1007.7 1006.1
12 12.07 З 5 10 км ясно +33.8 +20.5 46 +41 +50 опасность
перегрева
1006.4 1004.8
15 12.07 Ю 4 10 км ясно +36.1 +15.3 29 +38 +40 очень
душно
1005.5 1003.9
18 12.07 ЮВ 2 10 км ясно +32.2 +20.6 50 +39 +39 очень
душно
1005.9 1004.3 +36.4
21 12.07 штиль 0 10 км ясно +29.0 +22.6 68 +38 +38 очень
душно
1007.0 1005.4
00 13.07 СЗ 9 10 км ясно +28.4 +25.2 83 +41 +41 опасность
перегрева
1006.4 1004.8
03 13.07 СЗ 9 10 км ясно +27.4 +24.1 82 +38 +38 очень
душно
1007.0 1005.4
06 13.07 СЗ 10 10 км ясно +29.4 +23.9 72 +40 +41 очень
душно
1008.1 1006.5 +27.0
09 13.07 СЗ 9 10 км ясно +30.0 +23.4 68 +41 +42 опасность
перегрева
1007.6 1006.0
12 13.07 СЗ 10 10 км ясно +38.2 +18.8 32 +42 +43 опасность
перегрева
1005.5 1006.0
15 13.07 СЗ 7 10 км ясно +32.6 +24.4 62 +45 +46 опасность
перегрева
1004.5 1002.9
18 13.07 СЗ 6 10 км ясно +30.2 +23.0 65 +40 +40 очень
душно
1005.5 1003.9 +38.6
21 13.07 СЗ 7 10 км ясно +28.0 +23.0 74 +37 +37 очень
душно
1006.4 1004.8
00 14.07 СЗ 8 10 км ясно +27.4 +23.3 78 +37 +37 очень
душно
1005.6 1004.0
03 14.07 СЗ 10 10 км ясно +26.6 +23.0 81 +36 +36 очень
душно
1005.7 1004.1
06 14.07 СЗ 11 10 км ясно +27.6 +22.0 72 +36 +36 очень
душно
1006.4 1004.8 +26.0
09 14.07 СЗ 12 10 км ясно +28.4 +20.0 60 +35 +35 очень
душно
1005.8 1004.2
12 14.07 СЗ 12 10 км ясно +30.2 +22.1 62 +39 +39 очень
душно
1004.0 1002.4
15 14.07 СЗ 8 10 км ясно +31.4 +22.2 58 +40 +41 очень
душно
1002.9 1001.3
18 14.07 СЗ 5 10 км ясно +30.2 +21.1 58 +38 +38 очень
душно
1003.4 1001.8 +31.8
21 14.07 СЗ 8 10 км ясно +28.4 +23.2 73 +38 +38 очень
душно
1003.9 1002.3
00 15.07 СЗ 5 10 км ясно +27.0 +23.4 81 +37 +37 очень
душно
1004.0 1002.4 242
03 15.07 СЗ 5 10 км ясно +26.4 +22.2 78 +34 +34 очень
душно
1004.8 1003.2
06 15.07 СЗ 7 10 км ясно +29.8 +20.4 57 +37 +39 очень
душно
1005.7 1004.1 +26.0 242
09 15.07 З 9 10 км ясно +29.8 +21.6 61 +38 +40 очень
душно
1005.5 1003.9
12 15.07 СЗ 10 10 км ясно +31.8 +20.5 51 +39 +39 очень
душно
1004.8 1003.2
15 15.07 С 9 10 км ясно +34.2 +17.9 38 +38 +38 очень
душно
1003.7 1002.1
18 15.07 СЗ 5 10 км ясно +33.8 +12.5 28 +34 +34 очень
жарко
1004.6 1003.0 +35.2
21 15.07 СЗ 8 10 км ясно +30.0 +19.3 53 +36 +36 очень
душно
1005.2 1003.6
00 16.07 СЗ 9 10 км ясно +28.0 +22.1 70 +36 +36 очень
душно
1005.2 1003.6
03 16.07 СЗ 9 10 км ясно +26.8 +23.5 82 +36 +36 очень
душно
1005.8 1004.2
06 16.07 СЗ 9 10 км ясно +28.2 +22.9 73 +38 +39 очень
душно
1006.9 1005.3 +26.0
09 16.07 СЗ 10 10 км ясно +30.0 +22.2 63 +39 +40 очень
душно
1006.5 1004.9
12 16.07 СЗ 9 10 км ясно +46.0 +8.0 11 +40 +42 очень
жарко
1007.5 1003.6 242
15 16.07 СЗ 9 10 км ясно +35.0 +17.5 36 +39 +39 очень
душно
1004.0 1002.4
18 16.07 СЗ 5 10 км ясно +30.6 +22.0 60 +39 +39 очень
душно
1004.6 1003.0 +35.2
21 16.07 СЗ 4 10 км ясно +30.2 +20.8 57 +37 +37 очень
душно
1005.6 1004.0
00 17.07 В 4 10 км ясно +29.0 +16.7 47 +32 +32 душно 1004.9 1003.3
03 17.07 штиль 0 10 км ясно +27.6 +14.2 44 +30 +30 жарко 1004.8 1003.2
06 17.07 ЮЗ 2 10 км ясно +32.4 +16.2 38 +35 +44 душно 1005.8 1004.2 +27.3
09 17.07 Ю 4 10 км ясно +40.4 +13.9 21 +41 +56 опасность
перегрева
1004.9 1003.4
12 17.07 Ю 1 10 км 5/0
[Ci]
+44.0 +9.1 13 +42 +61 опасность
перегрева
1003.5 1002.0
15 17.07 Ю 7 10 км 8/0
[Ci]
+38.6 +15.4 26 +40 +41 очень
душно
1002.5 1001.0
18 17.07 ЮВ 4 10 км 3/0
[Ci fib]
+37.2 +14.6 26 +38 +38 душно 1003.3 1001.8 +44.4
21 17.07 СВ 3 10 км 3/0
[]
+35.1 +11.4 24 +35 +35 очень
жарко
1003.9 1002.3
00 18.07 СЗ 8 10 км ясно +30.4 +22.0 61 +39 +39 очень
душно
1003.5 1001.9
03 18.07 СЗ 7 10 км ясно +27.6 +24.9 85 +39 +39 очень
душно
1004.2 1002.6
06 18.07 СЗ 7 10 км ясно +29.0 +24.4 76 +41 +43 опасность
перегрева
1006.0 1004.4 +27.4
09 18.07 СЗ 10 10 км ясно +31.8 +24.5 65 +44 +45 опасность
перегрева
1006.1 1004.5
12 18.07 СЗ 8 10 км 3/0
[Ci fib]
+32.0 +24.4 64 +44 +47 опасность
перегрева
1004.8 1003.2
15 18.07 СЗ 8 10 км 3/0
[Ci fib]
+34.2 +23.0 52 +44 +45 опасность
перегрева
1003.6 1002.0
18 18.07 З 4 10 км ясно +30.0 +24.0 70 +41 +41 опасность
перегрева
1005.7 1004.1 +35.2 242

 

Местоположение метеостанции Эль-Тор (Египет): широта 28.23 долгота 33.62 высота над уровнем моря 14 м.

В архиве по умолчанию представлена погода в Эль-Торе за последнюю неделю. Архивные данные за месяц целиком и за предыдущие месяцы, начиная с января 2011 года, Вы можете получить, выбрав интересующий диапазон дат из раскрывающегося списка и нажав кнопку "Ввод!".


*Определитесь, кто Вы:
робот инопланетянин человек

Внимание! Время в таблицах - всемирное. Для получения местного времени необходимо прибавить поправку, которая равна 2 ч.

Смотрите также архив погоды в соседних городах и на ближайших метеорологических станциях:

Погода в Абу Редис (Египет) (86 км)
Погода в Хургаде (Египет) (121 км)
Погода в Рас-Седре (Египет) (174 км)
Погода в Нехеле (Египет) (188 км)
Погода в Эйлате (Израиль) (196 км)
Погода в Акаба (Иордания) (199 км)
Погода в Эль-Кусейре (Египет) (239 км)
Погода в Университете South Of Valley (Египет) (242 км)
Погода в Неот-Смадаре (Израиль) (244 км)
Погода в Миня (Египет) (284 км)

Пояснения к столбцам:

Ветер - указаны скорость ветра в м/с - средняя за 10 мин, порывы в срок и между сроками (в фигурных скобках) и направление, откуда дует ветер: С - северный, СВ - северо-восточный, В - восточный, ЮВ - юго-восточный, Ю - южный, ЮЗ - юго-западный, З - западный, СЗ - северо-западный.
Видимость - горизонтальная дальность видимости в метрах или километрах. При видимости от 1 до 10 км при отсутствии осадков обычно наблюдается дымка, при ухудшении видимости до 1 км и менее - туман. В сухую погоду видимость может ухудшаться дымом, пылью или мглою.
Явления - указаны атмосферные явления, наблюдавшиеся в срок или в последний час перед сроком; фигурными скобками обозначены явления, наблюдавшиеся между сроками (за 1-3 часа до срока); квадратными скобками обозначены град или гололедные отложения с указанием их диаметра в мм.
Облачность - указаны через наклонную черту общая и нижняя облачность в баллах и высота нижней границы облаков в метрах; квадратными скобками обозначены формы облаков: Ci - перистые, Cs - перисто-слоистые, Cc - перисто-кучевые, Ac - высококучевые, As - высокослоистые, Sc - слоисто-кучевые, Ns - слоисто-дождевые, Cu - кучевые, Cb - кучево-дождевые. Подробнее классификацию облаков см. в Атласе облаков (PDF).
T - Температура воздуха - температура, измеренная на высоте 2 м над землей.
Td - Температура точки росы - температура, при понижении до которой содержащийся в воздухе водяной пар достигнет насыщения.
f - Относительная влажность воздуха - влажноcть воздуха, измеренная на высоте 2 м над землей.
Te - Эффективная температура - температура, которую ощущает одетый по сезону человек в тени. Характеристика душности погоды. При расчете учитывается влияние влажности воздуха и скорости ветра на теплоощущения человека.
Tes - Эффективная температура на солнце - температура, которую ощущает человек, с поправкой на солнечный нагрев. Характеристика знойности погоды. Зависит от высоты солнца над горизонтом, облачности и скорости ветра. Ночью, в пасмурную погоду, а также при ветре 12 м/с и более поправка равна нулю.
P - Атмосферное давление - приведенное к уровню моря атмосферное давление.
Po - Атмосферное давление - измеренное на уровне метеостанции атмосферное давление.
Tmin - Минимальная температура - минимум температуры воздуха на высоте 2 м над землей.
Tmax - Максимальная температура - максимум температуры воздуха на высоте 2 м над землей.
R - Количество осадков - Количество выпавших осадков за период времени, мм. При наведении курсора мыши на число - период времени, за который выпало указанное количество осадков.
R24 - Количество осадков - Количество выпавших осадков за 24 часа, мм.
S - Снежный покров - Высота снежного покрова, см. При наведении курсора мыши на число - состояние снежного покрова и степень покрытия местности в баллах.